Orbital Elements at Epoch 2459200.5 (2020-Dec-17.0) TDB
Reference: JPL 28 (heliocentric ecliptic J2000)
Element | Value | Uncertainty (1-sigma) | Units |
e | .1854051290144602 | 3.246e-08 | |
a | 2.636542821722381 | 1.6276e-08 | au |
q | 2.147714259708794 | 8.0439e-08 | au |
i | 13.90193374532298 | 4.2398e-06 | deg |
node | 107.2165890321314 | 1.4326e-05 | deg |
peri | 273.0127754718027 | 2.03e-05 | deg |
M | 37.32350492840135 | 1.1742e-05 | deg |
tp | 2459038.382241526997 (2020-Jul-07.88224153) | 5.1383e-05 | TDB |
period | 1563.690043639766 4.28 | 1.4479e-05 3.964e-08 | d yr |
n | .2302246544731053 | 2.1318e-09 | deg/d |
Q | 3.125371383735968 | 1.9294e-08 | au |
|
| | Orbit Determination Parameters
Additional Information
|